Meteo Giornale » Osservazioni meteo Italia » Genova-Sestri

ore: 18:50 - Osservazioni Meteo Genova-Sestri
Lat. 44° 25' N Lon. 8° 51' E Alt. 2 metri s.l.m.

nuvoloso Europe/Rome

26 °C

Nuvoloso

Temp. 24 Ore

25 °C

27 °C

Sud-Est

14.8 Km/h

Dew point 26 °C

Umidità 100 %

Visibilità  8 Km

Il sole sorge alle ore 06:03

Il sole tramonta alle ore 20:58

Data e Ora Cielo e Fenomeni T °C DP °C Um. % Pres. hPa Vis. km Vento km/h
Oggi h: 18:50 nuvoloso Nuvoloso 26 26 100 1012 8 SE 14.8
Oggi h: 18:20 poco_nuvoloso Poco Nuvoloso 26 25 94 1012 8 E/SE 11.1
Oggi h: 17:50 nuvoloso Nuvoloso 26 25 94 1012 9 N 5.5
Oggi h: 17:20 nuvoloso Nuvoloso 26 25 94 1012 10 N 5.5
Oggi h: 16:50 nuvoloso Nuvoloso 26 25 94 1012 10 N 5.5
Oggi h: 16:20 nuvoloso Nuvoloso 27 24 83 1012 9 N 3.7
Oggi h: 15:50 poco_nuvoloso Poco Nuvoloso 26 25 94 1012 9 N 3.7
Oggi h: 15:20 poco_nuvoloso Poco Nuvoloso 26 25 94 1012 9 S/SE 7.4
Oggi h: 14:50 poco_nuvoloso Poco Nuvoloso 26 25 94 1012 9 SE 13
Oggi h: 14:20 nuvoloso Nuvoloso 26 24 88 1012 9 S/SE 9.3
Oggi h: 13:50 molto_nuvoloso Molto Nuvoloso 26 23 83 1012 10 S/SE 9.3
Oggi h: 13:20 nuvoloso Nuvoloso 27 23 78 1012 10 N 5.5
Oggi h: 12:50 nuvoloso Nuvoloso 27 23 78 1012 10 N 3.7
Oggi h: 12:20 nuvoloso Nuvoloso 26 23 83 1012 10 E/SE 9.3
Oggi h: 11:50 nuvoloso Nuvoloso 26 25 94 1012 10 S/SE 9.3
Oggi h: 11:20 molto_nuvoloso Molto Nuvoloso 26 24 88 1012 10 S/SE 11.1
Oggi h: 10:50 nuvoloso_temporali Temporale nelle Vicinanze 26 24 88 1011 10 S/SE 14.8
Oggi h: 10:20 molto_nuvoloso Molto Nuvoloso 26 24 88 1011 10 N 5.5
Oggi h: 09:50 molto_nuvoloso Molto Nuvoloso 25 25 100 1011 10 S/SE 7.4
Oggi h: 09:20 molto_nuvoloso Molto Nuvoloso 25 25 100 1011 10 S 7.4
Oggi h: 08:50 molto_nuvoloso Molto Nuvoloso 25 24 94 1011 10 N 5.5
Oggi h: 08:20 nuvoloso Nuvoloso 26 24 88 1011 10 N 1.8
Oggi h: 07:50 nuvoloso Nuvoloso 25 25 100 1011 10 N 1.8
Oggi h: 07:20 nuvoloso Nuvoloso 25 25 100 1010 9 N 3.7
Oggi h: 06:50 molto_nuvoloso Molto Nuvoloso 25 25 100 1010 7 N 1.8
Oggi h: 06:20 molto_nuvoloso Molto Nuvoloso 25 25 100 1010 7 N 5.5
Oggi h: 05:50 molto_nuvoloso Molto Nuvoloso 25 25 100 1010 8 SE 9.3
Oggi h: 05:20 nuvoloso Nuvoloso 25 25 100 1010 8 SE 16.7
Oggi h: 04:50 nuvoloso Nuvoloso 25 25 100 1010 9 E/SE 20.3
Oggi h: 04:20 molto_nuvoloso Molto Nuvoloso 25 25 100 1010 8 E/SE 22.2
Oggi h: 03:50 coperto_pioggia Pioggia Debole 25 25 100 1010 8 SE 18.5
Oggi h: 03:20 molto_nuvoloso Molto Nuvoloso 25 25 100 1010 8 S 13
Oggi h: 02:50 molto_nuvoloso Molto Nuvoloso 25 25 100 1010 8 SE 14.8
Oggi h: 02:20 molto_nuvoloso Molto Nuvoloso 25 25 100 1009 8 S/SE 7.4
Oggi h: 01:50 molto_nuvoloso Molto Nuvoloso 25 25 100 1009 9 SE 9.3
Oggi h: 01:20 molto_nuvoloso Molto Nuvoloso 25 25 100 1010 9 SE 11.1
Oggi h: 00:50 molto_nuvoloso Molto Nuvoloso 26 25 94 1010 9 SE 14.8
Oggi h: 00:20 nuvoloso Nuvoloso 26 25 94 1010 9 SE 18.5
Ieri h: 23:50 nuvoloso Nuvoloso 26 25 94 1010 8 SE 20.3
Ieri h: 23:20 nuvoloso Nuvoloso 26 25 94 1010 8 SE 20.3
Ieri h: 22:50 nuvoloso Nuvoloso 26 25 94 1009 8 SE 22.2
Ieri h: 22:20 nuvoloso Nuvoloso 26 25 94 1009 8 SE 22.2
Ieri h: 21:50 nuvoloso Nuvoloso 26 25 94 1009 9 SE 16.7
Ieri h: 21:20 nuvoloso Nuvoloso 26 25 94 1008 9 SE 18.5
Ieri h: 20:50 nuvoloso Nuvoloso 26 25 94 1008 10 SE 11.1
Ieri h: 20:20 nuvoloso Nuvoloso 26 25 94 1008 10 N 3.7
Ieri h: 19:50 nuvoloso Nuvoloso 26 25 94 1008 10 N 3.7